Location: �bnet
(46.9957°N, 8.4908°E)
Time: 15:08:15
(UTC+00:00)

Cosmos 1544 - Pass Details

Date: 11 May 2021
Orbit: 471 x 487 km, 82.5° (Epoch: 18 June)

Event Time Altitude Azimuth Distance (km) Brightness Sun altitude
Rises 21:31:21 0° 352° (N) 2,537 8.0 -20.3°
Reaches altitude 10° 21:33:27 10° 354° (N) 1,656 6.7 -20.4°
Maximum altitude 21:37:03 74° 80° (E) 503 2.9 -20.7°
Enters shadow 21:37:07 74° 91° (E) 503 2.9 -20.7°
